sat.trackr.live / text

‹ back to catalog

SITRO-AIS 47

NORAD 61773 · 2024-199AQ

PAYLOAD ACTIVE UNKNOWN

§ Identity

Operator
Country
CIS
Launch date
2024-11-04
Launch site
VOSTO
Launch vehicle
Mass (kg)
RCS (m²)

External: N2YO · Heavens-Above · Gunter

§ Orbital elements

Epoch: 2026-05-25T03:21:07.626240Z

Period
92.52 min
Inclination
97.2951°
Eccentricity
0.0007245
Mean motion
15.56438241 rev/d
Perigee alt
393.1 km
Apogee alt
402.9 km
Semi-major
6,776.1 km
B*
6.8736e-4
RAAN
20.7025°
Arg perigee
31.0805°
Mean anomaly
329.0877°
Rev number
13,085

§ Raw data

SITRO-AIS 471 61773U 24199AQ  26145.13967160  .00048750  00000+0  68736-3 0  99962 61773  97.2951  20.7025 0007245  31.0805 329.0877 15.56438241130852

JSON: /api/v1/satellites/61773 · /tle

For live sub-satellite position, see the globe view (requires WebGL).

§ Visibility from observer

Set your observer location to see the next 7 days of passes ≥ 10°. The values pass through the URL so the page stays shareable.

No JS? Fill the form by hand. The geolocation button needs JavaScript.

§ Radio — SatNOGS DB

ModeDescriptionDownlinkUplink
GMSK USP Mode U - GMSK2k4 - USP 401.225 MHz

1 transmitter · refreshed weekly from db.satnogs.org